User: anonymous   Login
Location: Eschertshofen
(49.3064°N, 11.5756°E)
Time: 12:48:25
(UTC+00:00)
Language:

Spot 2 Rocket - Orbit

View from above orbital plane
View from above orbital plane
View from above satellite
View from above satellite

Ground track
Ground track

The orbit data is extracted from the following two-line orbital elements,

1 20443U 90005H   21132.18974070  .00000016  00000-0  19735-4 0  9998
2 20443  98.5305 198.6950 0011644  84.9861 275.2655 14.38125136639627
Epoch (UTC): 12 May 2021 04:33:13
Eccentricity: 0.0011644
inclination: 98.5305°
perigee height: 756 km
apogee height: 773 km
right ascension of ascending node: 198.6950°
argument of perigee: 84.9861°
revolutions per day: 14.38125136
mean anomaly at epoch: 275.2655°
orbit number at epoch: 63962

The dashed part of the orbit path shows where the satellite is in the earth's shadow,  

DLR